Location: Newark
(34.3481°N, 134.0494°E)
Time: 11:48:19
(UTC+00:00)

Tiros 1 despin weight - Visible Passes

Search period start: 27 January 2020 00:00
Search period end: 06 February 2020 00:00
Orbit: 594 x 642 km, 48.2° (Epoch: 26 January)

Date Brightness Start Highest point End Pass type
(mag) Time Alt. Az. Time Alt. Az. Time Alt. Az.
27 Jan ? 08:56:51 10° WNW 09:00:53 29° SW 09:04:56 10° SSE visible
28 Jan ? 09:14:46 10° W 09:17:09 14° SW 09:19:31 10° SSW visible
01 Feb ? 21:03:34 10° SSE 21:04:57 11° SE 21:06:19 10° ESE visible
02 Feb ? 21:17:33 10° S 21:21:10 25° SE 21:24:49 10° ENE visible
04 Feb ? 20:10:12 10° SSE 20:12:55 16° SE 20:15:38 10° E visible
05 Feb ? 20:25:12 10° SSW 20:29:11 35° SE 20:33:13 10° ENE visible
